Flag for Brazil

Past Weather in Belém, Pará, Brazil — Yesterday and Last 2 Weeks

Now
88 °F

Rain showers. Broken clouds.


Feels Like: 98 °F
Forecast: 88 / 74 °F
Wind: 9 mph from Southeast

Location: Belem Aeroporto

Current Time: Jul 10, 2020 at 2:32:57 pm

Latest Report: Jul 10, 2020 at 2:00 pm


Visibility: N/A

Pressure: 29.89 "Hg

Humidity: 66%

Dew Point: 75 °F

Location of BelémLocation

Past Weather in Belém — Graph

°F

Belém Temperature Yesterday

Maximum temperature yesterday: 90 °F (at 2:00 pm)
Minimum temperature yesterday: 73 °F (at 10:00 pm)
Average temperature yesterday: 82 °F

High & Low Weather Summary for the Past Weeks

 TemperatureHumidityPressure
High91 °F (Jun 26, 1:00 pm)100% (Jun 27, 5:00 am)29.95 "Hg (Jun 27, 5:00 am)
Low73 °F (Jun 26, 9:00 pm)49% (Jun 26, 1:00 pm)29.62 "Hg (Jul 1, 9:00 am)
Average81 °F81%29.86 "Hg
* Reported Jun 25 1:00 pm — Jul 10 1:00 pm, Belém. Weather by CustomWeather, © 2020

Note: Actual official high and low records may vary slightly from our data, if they occured in-between our weather recording intervals... More about our weather records

Belém Weather History for the Previous 24 Hours

Scroll right to see more
 ConditionsComfort  
Time TempWeatherWind HumidityBarometerVisibility
1:00 pm
Fri, Jul 10
90 °FPartly sunny.7 mph59%29.89 "HgN/A
12:00 pm90 °FPartly sunny.9 mph63%29.92 "HgN/A
11:00 am88 °FScattered clouds.12 mph66%29.92 "HgN/A
10:00 am84 °FScattered clouds.13 mph74%29.95 "HgN/A
9:00 am82 °FPassing clouds.13 mph79%29.95 "HgN/A
8:00 am79 °FPassing clouds.6 mph89%29.92 "HgN/A
7:00 am75 °FSunny.2 mph94%29.89 "Hg10 mi
6:00 am75 °FClear.3 mph89%29.89 "Hg10 mi
5:00 am75 °FPassing clouds.3 mph89%29.86 "HgN/A
4:00 am73 °FPassing clouds.3 mph94%29.86 "HgN/A
3:00 am73 °FPassing clouds.2 mph94%29.89 "HgN/A
2:00 am73 °FPassing clouds.3 mph94%29.89 "HgN/A
1:00 am75 °FPassing clouds.9 mph94%29.92 "HgN/A
12:00 am73 °FThundershowers. Partly cloudy.9 mph94%29.95 "HgN/A
11:00 pm
Thu, Jul 9
75 °FThundershowers. Passing clouds.5 mph89%29.92 "HgN/A
10:00 pm73 °FLight rain. Passing clouds.8 mph89%29.92 "Hg5 mi
9:00 pm77 °FStrong thunderstorms. Passing clouds.26 mph79%29.92 "Hg1 mi
8:00 pm82 °FThundershowers. Passing clouds.8 mph84%29.86 "HgN/A
7:00 pm84 °FPassing clouds.7 mph79%29.86 "HgN/A
6:00 pm86 °FScattered clouds.9 mph75%29.86 "HgN/A
5:00 pm88 °FPartly sunny.6 mph70%29.86 "HgN/A
4:00 pm90 °FPartly sunny.3 mph55%29.86 "HgN/A
3:00 pm90 °FScattered clouds.6 mph55%29.86 "HgN/A
2:00 pm90 °FScattered clouds.8 mph55%29.89 "HgN/A
Weather by CustomWeather, © 2020

See weather overview